Location: Ar Ranvel
(48.3000°N, 4.8833°W)
Time: 19:18:44
(UTC+00:00)

BlueWalker 3 - Pass Details

Date: 06 December 2022
Orbit: 499 x 517 km, 53.2° (Epoch: 06 February)

Event Time Altitude Azimuth Distance (km) Brightness Sun altitude
Rises 18:02:45 0° 293° (WNW) 2,631 6.4 -15.4°
Reaches altitude 10° 18:05:00 10° 299° (WNW) 1,739 5.3 -15.7°
Maximum altitude 18:08:52 54° 17° (NNE) 628 2.2 -16.4°
Enters shadow 18:10:08 36° 73° (ENE) 820 2.4 -16.6°
